Location: Torralba de Oropesa
(39.9338°N, 5.1540°W)
Time: 21:18:22
(UTC+00:00)

Daily predictions for brighter satellites

Satellite Brightness Start Highest point End
(mag) Time Altitude Azimuth Time Altitude Azimuth Time Altitude Azimuth
CZ-4 R/B 2.8 20:17:42 10° SSW 20:21:21 38° W 20:25:07 10° NNW
Cosmos 2026 Rocket 4.0 20:15:25 10° S 20:21:32 66° E 20:27:36 10° NNE
Cosmos 1066 Rocket 4.5 20:16:16 10° S 20:21:56 55° E 20:27:36 10° NNE
Cosmos 1470 Rocket 4.3 20:19:43 10° N 20:23:42 34° ENE 20:27:39 10° SE
USA 234 3.3 20:19:35 10° NE 20:26:06 66° SE 20:32:34 10° SW
DELTA 2 DEB (DPAF) 4.0 20:22:23 10° NNE 20:26:38 88° E 20:30:50 10° SSW
Cosmos 1666 Rocket 3.5 20:26:52 10° N 20:31:13 87° E 20:35:34 10° S
Cosmos 2285 Rocket 4.0 20:25:16 10° SSW 20:31:35 82° ESE 20:37:59 10° NNE
Atlas Centaur 2 3.6 20:27:27 10° SW 20:34:51 39° S 20:42:24 10° ESE
ERS-1 Rocket 4.2 20:33:23 10° ESE 20:37:31 27° ENE 20:41:40 10° NNE
Resurs 01 Rocket 2.3 20:34:45 10° S 20:39:04 54° W 20:43:23 10° NNW
SL-16 R/B 4.0 20:35:24 10° N 20:39:07 18° NE 20:42:51 10° E
Cosmos 2082 Rocket 2.2 20:34:37 10° SSW 20:40:20 84° ESE 20:46:04 10° NNE
Cosmos 1763 Rocket 4.1 20:36:14 10° N 20:41:13 42° ENE 20:45:43 12° SE
Cosmos 2369 4.1 20:35:41 10° NNW 20:41:18 53° ENE 20:46:32 12° SE
Lacrosse 5 rocket 2.9 20:37:59 10° WNW 20:41:37 28° SW 20:45:07 10° S
SPOT 5 3.0 20:42:41 11° SE 20:46:39 46° ENE 20:50:48 10° N
IRIDIUM 103 4.4 20:41:50 10° N 20:47:01 64° E 20:52:11 10° SSE
Cosmos 1933 Rocket 4.5 20:44:01 10° NNE 20:48:01 32° ENE 20:51:18 14° SE
Cosmos 1470 3.6 20:45:16 10° NNE 20:48:36 31° ENE 20:51:09 15° SE
Cosmos 1626 3.8 20:46:56 10° SW 20:49:45 29° WNW 20:52:36 10° NNW
USA 186 4.4 20:48:25 10° SW 20:50:57 20° W 20:53:31 10° NW
Cosmos 1908 4.3 20:52:43 10° NNE 20:55:46 25° ENE 20:57:42 16° ESE
Cosmos 1674 2.4 20:54:21 10° S 20:57:49 89° E 21:01:18 10° N
IRS-1C Rocket 4.3 20:54:03 13° SSE 20:58:39 56° ENE 21:03:47 10° N
KORONAS-FOTON 3.6 21:00:43 10° S 21:04:24 81° E 21:08:09 10° N
IRIDIUM 106 4.4 21:00:06 10° N 21:05:21 87° W 21:10:33 10° S
Ariane Rocket 3.9 21:03:07 16° SE 21:06:34 34° ENE 21:11:07 10° N
Cosmos 1697 Rocket 4.2 21:02:12 10° NW 21:07:08 32° WSW 21:12:02 10° SSW
Cosmos 1842 3.1 21:04:16 10° S 21:07:54 82° W 21:11:35 10° N
Cosmos 468 Rocket 4.4 21:03:20 10° N 21:08:24 48° ENE 21:11:55 19° SE
MOS 1 4.4 21:07:23 10° S 21:13:01 75° WSW 21:18:41 10° NNW
COSMOS 2406 3.7 21:07:51 10° SSW 21:13:34 66° WNW 21:19:18 10° NNE
SPOT 3 Rocket 4.3 21:12:14 18° SE 21:15:28 38° ENE 21:20:13 10° N
Meteor 1-13 Rocket 4.3 21:10:46 10° S 21:16:31 61° E 21:22:09 10° NNE
MetOp-B 4.2 21:13:09 13° SSE 21:17:54 83° WSW 21:23:18 10° NNW
ARGOS Delta rocket 3.7 21:18:53 15° S 21:22:35 79° W 21:27:01 10° NNW
Cosmos 1553 Rocket 4.0 21:16:50 10° N 21:23:02 89° W 21:28:25 15° S
CZ-4C R/B 4.4 21:19:13 10° N 21:23:13 49° WNW 21:27:11 10° SSW
Cosmos 2322 Rocket 3.7 21:19:25 10° N 21:23:59 24° NE 21:27:28 14° E
Cosmos 1980 Rocket 2.8 21:18:39 10° NNW 21:24:10 52° WSW 21:28:52 14° S
S3M 4.4 21:18:59 10° N 21:25:10 50° ENE 21:29:06 22° SE
Okean-O 3.7 21:22:55 10° SSW 21:27:03 40° W 21:31:13 10° NNW
SJ 16-02 3.4 21:28:53 12° E 21:28:53 12° E 21:30:09 10° ENE
Cosmos 2278 4.0 21:27:35 10° NNW 21:33:12 56° ENE 21:36:26 25° SE
Landsat 4 3.8 21:32:54 34° SE 21:34:00 50° ENE 21:37:21 10° N
Landsat 5 4.2 21:30:35 10° NE 21:34:12 32° E 21:35:02 29° ESE
USA 245 2.8 21:34:18 35° S 21:35:33 87° W 21:39:24 10° NNW
Cosmos 2266 Rocket 4.0 21:31:15 16° S 21:36:26 71° E 21:42:48 10° NNE
Tiangong -2.3 21:33:24 10° WNW 21:36:35 84° SSW 21:37:28 44° ESE
Cosmos 1400 Rocket 2.8 21:35:14 31° SSE 21:36:52 56° E 21:40:40 10° NNE
Cosmos 540 Rocket 3.5 21:33:19 10° NNW 21:38:29 81° WSW 21:41:30 25° SSE
Cosmos 1707 3.8 21:36:40 10° SSW 21:40:04 39° WNW 21:43:29 10° N
Terra 1.7 21:37:47 25° SSE 21:40:31 89° ENE 21:45:15 10° NNW
Cosmos 968 Rocket 4.3 21:41:01 27° ESE 21:42:10 30° E 21:46:36 10° NE
Cosmos 1733 Rocket 4.3 21:39:24 10° NNE 21:43:09 27° ENE 21:44:16 24° E
Cosmos 2237 4.4 21:39:23 10° NNW 21:45:05 62° ENE 21:47:58 29° SE
Cosmos 2228 Rocket 3.6 21:44:43 33° SE 21:46:10 44° E 21:50:30 10° NNE
SL-08 ROCKET BODY 4.4 21:42:20 18° S 21:46:59 78° E 21:53:06 10° N
Okean O Rocket 4.4 21:49:33 10° WSW 21:51:03 12° W 21:52:35 10° WNW
ATLAS CENTAUR R/B 1.9 21:52:13 32° E 21:52:13 32° E 21:54:41 10° NE
Cosmos 2219 Rocket 4.2 21:48:47 10° N 21:52:27 17° NE 21:55:47 11° E
SeaSat 1 2.9 21:51:57 26° S 21:54:33 54° WSW 21:59:23 10° NW
Meteor 2-10 Rocket 3.7 21:52:47 10° N 21:58:21 64° ENE 22:00:34 35° SSE
Meteor 1-15 Rocket 4.1 21:55:28 10° N 22:01:03 90° W 22:03:46 32° S
Meteor 1-23 Rocket 4.2 21:58:52 23° S 22:02:31 89° E 22:08:15 10° N
Cosmos 1869 Rocket 3.9 21:59:57 10° NNW 22:04:19 60° W 22:06:16 31° SSW
Okean 1-7 4.4 22:04:58 24° E 22:04:58 24° E 22:08:18 10° NE
BREEZE-M DEB (TANK) 4.0 22:06:05 10° NNW 22:07:59 24° NNE 22:09:09 19° ENE
MOS 1 Rocket 3.9 22:05:50 28° S 22:08:41 64° W 22:14:01 10° NNW
Cosmos 2360 Rocket 2.8 22:10:36 10° NNW 22:16:04 46° ENE 22:18:06 33° ESE
ERS-1 Rocket 4.2 22:13:06 19° SSW 22:16:05 34° W 22:20:40 10° NNW
Cosmos 2315 Rocket 4.0 22:09:53 10° N 22:16:18 85° E 22:19:12 35° S
SL-14 R/B 3.3 22:17:25 51° SW 22:18:12 70° W 22:22:00 10° N
Cosmos 841 Rocket 3.5 22:13:45 10° NNW 22:19:01 82° WSW 22:20:45 44° S
RESURS DK-1 2.3 22:16:40 10° NNW 22:20:43 64° ENE 22:21:10 59° E
Spot 2 Rocket 4.3 22:18:21 25° SSW 22:20:49 43° W 22:25:39 10° NNW
Cosmos 2333 Rocket 2.8 22:15:34 10° NNW 22:21:07 47° ENE 22:23:08 34° ESE
Meteor 1-12 Rocket 4.4 22:15:47 10° NNW 22:21:50 80° W 22:24:25 36° S
Atlas Centaur 2 3.4 22:15:58 10° WSW 22:23:40 42° S 22:25:49 35° SSE
SL-16 R/B 2.2 22:18:09 10° NNW 22:23:50 74° WSW 22:25:47 42° S
Cosmos 1300 2.5 22:23:21 10° N 22:26:54 74° W 22:26:54 74° W
Aureole 3 3.1 22:30:50 81° E 22:30:50 81° E 22:35:06 10° N
Cosmos 1833 4.1 22:30:08 40° S 22:32:13 77° ESE 22:37:51 10° NNE
Cosmos 1862 Rocket 3.6 22:32:47 53° SSW 22:33:43 74° W 22:38:08 10° N
Cosmos 1346 Rocket 2.6 22:32:41 10° NNW 22:36:33 76° W 22:36:35 76° WSW
Meteor 1-4 Rocket 3.7 22:41:49 31° NNE 22:41:49 31° NNE 22:43:32 10° N
Cosmos 1932 4.4 22:38:31 39° S 22:40:54 69° ESE 22:47:09 10° NE
Meteor 1-16 Rocket 4.3 22:40:10 10° N 22:46:07 77° E 22:47:38 52° SSE
Cosmos 1758 4.2 22:44:09 10° NNW 22:47:46 37° W 22:48:07 37° WSW
SL-27 R/B 4.2 22:50:57 24° NW 22:50:57 24° NW 22:52:40 10° N
ATLAS 2AS CENTAUR R/B 2.7 22:46:11 10° NNW 22:52:59 71° NE 22:55:16 43° SE
Cosmos 2333 4.3 22:47:44 10° NNW 22:53:30 67° ENE 22:54:50 51° ESE
ARIANE 5 R/B 2.6 22:54:59 64° ENE 22:54:59 64° ENE 22:59:17 10° N
Okean 2 3.4 23:00:22 72° NNW 23:00:22 72° NNW 23:04:03 10° N
PSLV R/B 4.1 22:59:25 10° NNE 23:02:50 63° NNE 23:02:50 63° NNE
SJ 16-02 1.8 23:05:36 48° W 23:06:11 52° WNW 23:10:24 10° N
Cosmos 1745 Rocket 4.2 23:05:11 48° SE 23:06:19 55° E 23:12:29 10° NNE
Cosmos 1241 Rocket 4.4 23:04:14 35° SW 23:07:00 80° WNW 23:13:16 10° NNE
Cosmos 2322 Rocket 2.6 23:02:48 10° NNW 23:08:17 50° WSW 23:09:15 45° SW
COSMOS 2455 3.8 23:08:58 30° E 23:08:58 30° E 23:13:32 10° NE
Cosmos 2297 Rocket 3.9 23:13:10 19° E 23:13:10 19° E 23:16:09 10° NE
Nadezhda 1 Rocket 4.0 23:14:14 10° N 23:20:32 67° E 23:21:42 55° SE
USA 281 3.1 23:19:37 54° S 23:21:14 77° WSW 23:27:51 10° NNW
GP-B 3.2 23:17:52 10° N 23:22:05 71° WNW 23:22:05 71° WNW
Cosmos 1386 Rocket 4.4 23:23:56 58° S 23:25:19 90° WNW 23:31:36 10° N
Cosmos 1315 Rocket 4.0 23:26:20 36° WNW 23:26:20 36° WNW 23:29:57 10° N
COSMOS 2428 3.5 23:21:29 10° N 23:26:53 42° ENE 23:28:13 36° E
ATLAS CENTAUR R/B 3.8 23:27:06 11° W 23:29:12 16° NW 23:31:29 10° N
Cosmos 1814 Rocket 4.3 23:24:42 10° NNW 23:29:53 56° WSW 23:30:10 55° WSW
Cosmos 1908 Rocket 4.0 23:28:07 10° NNW 23:31:58 55° WNW 23:31:58 55° WNW
CZ-3 Stage 3 3.8 23:04:30 10° W 23:34:38 51° SSW 23:37:06 43° SSE
Cosmos 1782 Rocket 3.9 23:30:32 10° N 23:34:15 61° NNE 23:34:15 61° NNE
H-2A R/B 2.8 23:35:29 67° NNW 23:35:29 67° NNW 23:39:15 10° NNW
Cosmos 1953 3.5 23:33:12 10° NNW 23:35:58 34° WNW 23:35:58 34° WNW
Cosmos 2219 Rocket 2.1 23:31:21 10° NNW 23:37:02 76° WSW 23:37:28 72° SSW
Cosmos 371 Rocket 4.2 23:39:00 37° ENE 23:39:00 37° ENE 23:42:35 10° NNE
Cosmos 1455 3.8 23:35:19 10° NNW 23:37:24 29° NW 23:37:24 29° NW
Cosmos 2208 Rocket 4.3 23:34:07 10° N 23:39:12 52° ENE 23:39:34 51° E
Cosmos 158 Rocket 4.4 23:36:31 10° N 23:41:41 51° ENE 23:42:07 50° E
Spot 4 3.8 23:42:36 81° NW 23:42:36 81° NW 23:47:14 10° NNW
ALOS 2 2.8 23:49:16 66° N 23:49:16 66° N 23:53:07 10° N
